Regional Weather Roundup
Issued by NWS

Home | Current Version | Previous Version | Text Only | Print | Product List | Glossary Off
Versions: 1 2 3 4 5 6 7 8 9 10 11 12 13 14 15 16 17 18 19 20 21 22 23 24 25 26 27 28 29 30 31 32 33 34 35 36 37 38 39 40 41 42 43 44 45 46 47 48 49 50

000
ASUS44 KMEG 270710
RWRTN
TENNESSEE HOURLY STATE WEATHER ROUNDUP
NATIONAL WEATHER SERVICE MEMPHIS TN
200 AM CDT THU APR 27 2017

TNZ002-004-019-021-049-052-054-088>092-270800-
WEST TENNESSEE

CITY           SKY/WX    TMP DP  RH WIND       PRES   REMARKS
MEMPHIS INTL   CLOUDY    55  54  96 NW16G23   29.63R
NWS MEMPHIS      N/A     56 N/A N/A MISG        N/A
JACKSON        PTCLDY    61  60  97 S7        29.59S
DYERSBURG      LGT RAIN  57  55  93 W12G22    29.61R
SOMERVILLE     CLOUDY    63  61  94 VRB7      29.59S
UNION CITY     CLOUDY    61  59  94 SW5       29.55S
BOLIVAR        CLOUDY    61  61 100 SE3       29.60R
PARIS          CLOUDY    57  57 100 S8        29.57R
HUNTINGDON     CLOUDY    61  61 100 S7        29.58R
LEXINGTON      MOCLDY    61  61 100 SE3       29.59S
SAVANNAH       PTCLDY    63  61  94 S3        29.59R
$$

TNZ008-025-027-028-033-062-065-066-270800-
NORTH MIDDLE TENNESSEE

CITY           SKY/WX    TMP DP  RH WIND       PRES   REMARKS
NASHVILLE      RAIN      66  62  87 NW12      29.64F
PORTLAND       CLOUDY    63  61  94 W5        29.67R
CLARKSVILLE    CLOUDY    60  58  92 SE9       29.57F
SMYRNA         TSTM      71  60  68 SW3       29.63F
COOKEVILLE     MOCLDY    70  57  64 S13       29.65F
GALLATIN       CLOUDY    70  61  73 VRB6G15   29.69R
CROSSVILLE     CLOUDY    66  55  67 S9G21     29.73F
$$

TNZ061-075-076-078-094-096-097-270800-
SOUTH MIDDLE TENNESSEE

CITY           SKY/WX    TMP DP  RH WIND       PRES   REMARKS
FAYETTEVILLE   CLOUDY    68  59  73 S14G20    29.65R
TULLAHOMA      MOCLDY    70  54  56 S8        29.65F
WINCHESTER     CLEAR     70  57  64 S15       29.65F
MCMINNVILLE    CLEAR     72  57  60 S10G23    29.66F
COLUMBIA       CLOUDY   N/A N/A N/A S5        29.64S
SHELBYVILLE    CLOUDY    73  59  60 S10       29.65R
$$

TNZ017-018-042-046-047-270800-
NORTHEAST TENNESSEE

CITY           SKY/WX    TMP DP  RH WIND       PRES   REMARKS
TRI CITIES     CLEAR     63  55  75 W6        29.78S
ELIZABETHTON   CLEAR     57  55  94 CALM      29.79S
$$

TNZ012-013-036-069-073-074-270800-
CENTRAL EAST TENNESSEE

CITY           SKY/WX    TMP DP  RH WIND       PRES   REMARKS
KNOXVILLE      CLOUDY    68  54  60 S5        29.70F
OAK RIDGE      CLOUDY    71  55  56 VRB5      29.73F
DOWNTOWN KNOXV CLEAR     66  57  72 CALM      29.71F
GATLINBURG     CLEAR     61  54  77 VRB3      29.73F
MORRISTOWN     CLEAR     61  57  88 CALM      29.74F
JACKSBORO      CLEAR     72  55  56 S12G32    29.71F
$$

TNZ083-085-099-270800-
SOUTHEAST TENNESSEE

CITY           SKY/WX    TMP DP  RH WIND       PRES   REMARKS
CHATTANOOGA    MOCLDY    69  57  65 SE6       29.72F
$$

SKY/WX REPORTED AS FAIR MEANS FEW OR NO CLOUDS BELOW
12 THOUSAND FEET.




USA.gov is the U.S. government's official web portal to all federal, state and local government web resources and services.